Погода в Сёнае

Япония     31°42′44″N   131°03′57″E
темп.,
°C
ветер,
м/с
пор.,
м/с
влажн.,
%
обл.,
%
осадки,
мм/ч
давл.,
гПа
погр.,
м
23 апреля, пт
пт2300:00+12ссв268597 0.0 1018121
03:00+11св2383100 0.0 101664
06:00+11св2681100 0.0 1017143
09:00+17всв3768100 0.0 1018682
12:00+19всв6855100 0.0 10171441
15:00+18св6960100 0.0 10161188
18:00+16всв51076100 0.0 10171024
21:00+15св31082100 0.1 1018409
24 апреля, сб
сб2400:00+13св2591100 0.1 1018138
03:00+12св26975 0.1 1017154
06:00+13св369771 0.2 1018203
09:00+18в487976 1.2 10191152
12:00+19в5765100 1.1 10191555
15:00+20в5652100 1.2 10181793
18:00+16всв3671100 0.0 1018443
21:00+13ссв238554 0.0 102059
25 апреля, вс
вс2500:00+12ссв118756 0.0 101918
03:00+11с11905 0.0 101711
06:00+11с11905 0.0 101713
09:00+19св12643 0.0 1017681
12:00+22всв234499 0.0 10152118
15:00+17ю137595 0.2 1015137
18:00+17ю1375100 0.1 1015111
21:00+13зюз009068 0.1 101711
26 апреля, пн
пн2600:00+13ссв119043 0.0 101817
03:00+11ссв11925 0.0 101814
06:00+10св11911 0.0 101823
09:00+17всв2361100 0.0 1019585
12:00+20всв3243100 0.0 10191407
15:00+20всв323999 0.0 10181210
18:00+16всв1367100 0.0 1020165
21:00+12всв118899 0.0 102229
27 апреля, вт
вт2700:00+10св2294100 0.0 102338
03:00+9св22962 0.0 102333
06:00+9ссв249526 0.0 102377
09:00+17всв3563100 0.0 1023704
12:00+20в3462100 0.0 10211244
15:00+21в2363100 0.1 10201293
18:00+18юв2480100 0.2 1021252
21:00+15в1193100 0.3 102223